Location: Peebles
(55.6412°N, 3.1714°W)
Time: 21:14:36
(UTC+01:00)

deb Kosmos-2123 - Pass Details

Date: 03 July 2022
Orbit: 942 x 985 km, 82.9° (Epoch: 17 August)

Event Time Altitude Azimuth Distance (km) Brightness Sun altitude
Exits shadow 00:43:46 - 142° (SE) 2,803 ? -11.1°
Reaches altitude 10° 00:43:58 10° 141° (SE) 2,740 ? -11.1°
Maximum altitude 00:49:16 30° 83° (E) 1,695 ? -11.2°
Drops below altitude 10° 00:54:35 10° 26° (NNE) 2,742 ? -11.2°
Sets 00:57:23 0° 16° (NNE) 3,689 ? -11.3°
